When you browse on this site, cookies collect data to enhance your experience and personalize the content and advertising you see.
Visit our Privacy Policy to learn more. By continuing to use the site, you agree to this use of cookies and data.
  • In Österreich
  • Länderverzeichnis
  • Für 7 Tage
  • Wassertemperatur
  • Wetterkarte
  • News
  • Widgets
  • user-avatar
    Anmelden

    Stündliche Wetter Sopó

    Heute, 23 September, Montag

    Zeit Temperatur Niederschläge Wind Luftdruck Luftfeuchtigkeit
    00:00 +11°C° 0 mm 1 m/S 555 mmHg 93%
    01:00 +10°C° 0 mm 1 m/S 555 mmHg 93%
    02:00 +10°C° 0 mm 1 m/S 555 mmHg 92%
    03:00 +10°C° 0 mm 1 m/S 555 mmHg 91%
    04:00 +10°C° 0 mm 1 m/S 555 mmHg 91%
    05:00 +10°C° 0 mm 1 m/S 556 mmHg 88%
    06:00 +11°C° 0 mm 1 m/S 556 mmHg 86%
    07:00 +12°C° 0 mm 1 m/S 557 mmHg 84%
    08:00 +14°C° 0 mm 1 m/S 558 mmHg 74%
    09:00 +18°C° 0 mm 1 m/S 560 mmHg 64%
    10:00 +20°C° 0 mm 1 m/S 561 mmHg 55%
    11:00 +20°C° 0.3 mm 1 m/S 560 mmHg 58%
    12:00 +20°C° 0.3 mm 1 m/S 559 mmHg 61%
    13:00 +20°C° 0.3 mm 1 m/S 558 mmHg 64%
    14:00 +19°C° 0.8 mm 1 m/S 558 mmHg 69%
    15:00 +19°C° 0.8 mm 1 m/S 557 mmHg 75%
    16:00 +18°C° 0.8 mm 1 m/S 556 mmHg 80%
    17:00 +16°C° 0.8 mm 1 m/S 556 mmHg 84%
    18:00 +14°C° 0.8 mm 1 m/S 556 mmHg 88%
    19:00 +13°C° 0.8 mm 1 m/S 555 mmHg 92%
    20:00 +13°C° 0.2 mm 1 m/S 556 mmHg 92%
    21:00 +12°C° 0.2 mm 1 m/S 556 mmHg 92%
    22:00 +10°C° 0.2 mm 0 m/S 556 mmHg 91%
    23:00 +10°C° 0 mm 0 m/S 556 mmHg 91%

    Morgen, 24 September, Dienstag

    Zeit Temperatur Niederschläge Wind Luftdruck Luftfeuchtigkeit
    00:00 +10°C° 0 mm 0 m/S 555 mmHg 91%
    01:00 +9°C° 0 mm 0 m/S 555 mmHg 91%
    02:00 +9°C° 0 mm 0 m/S 555 mmHg 90%
    03:00 +9°C° 0 mm 0 m/S 555 mmHg 90%
    04:00 +9°C° 0 mm 0 m/S 555 mmHg 89%
    05:00 +10°C° 0 mm 0 m/S 555 mmHg 87%
    06:00 +10°C° 0 mm 0 m/S 556 mmHg 85%
    07:00 +11°C° 0 mm 0 m/S 557 mmHg 83%
    08:00 +13°C° 0 mm 0 m/S 558 mmHg 75%
    09:00 +18°C° 0 mm 1 m/S 560 mmHg 67%
    10:00 +20°C° 0 mm 1 m/S 561 mmHg 58%
    11:00 +19°C° 0.5 mm 1 m/S 560 mmHg 63%
    12:00 +19°C° 0.5 mm 1 m/S 559 mmHg 69%
    13:00 +17°C° 0.5 mm 2 m/S 558 mmHg 74%
    14:00 +16°C° 1 mm 1 m/S 557 mmHg 79%
    15:00 +16°C° 1 mm 1 m/S 556 mmHg 83%
    16:00 +15°C° 1 mm 1 m/S 555 mmHg 88%
    17:00 +14°C° 0.8 mm 1 m/S 555 mmHg 89%
    18:00 +13°C° 0.8 mm 1 m/S 555 mmHg 91%
    19:00 +13°C° 0.8 mm 1 m/S 555 mmHg 93%
    20:00 +12°C° 0.1 mm 1 m/S 556 mmHg 93%
    21:00 +12°C° 0.1 mm 1 m/S 556 mmHg 92%
    22:00 +12°C° 0.1 mm 1 m/S 556 mmHg 92%
    23:00 +11°C° 0 mm 0 m/S 556 mmHg 91%

    übermorgen, 25 September, Mittwoch

    Zeit Temperatur Niederschläge Wind Luftdruck Luftfeuchtigkeit
    00:00 +11°C° 0 mm 0 m/S 556 mmHg 91%
    01:00 +11°C° 0 mm 0 m/S 556 mmHg 91%
    02:00 +11°C° 0 mm 0 m/S 556 mmHg 91%
    03:00 +11°C° 0 mm 0 m/S 556 mmHg 91%
    04:00 +11°C° 0 mm 0 m/S 555 mmHg 91%
    05:00 +11°C° 0 mm 0 m/S 556 mmHg 90%
    06:00 +11°C° 0 mm 0 m/S 557 mmHg 89%
    07:00 +12°C° 0 mm 0 m/S 557 mmHg 88%
    08:00 +14°C° 0.3 mm 1 m/S 558 mmHg 84%
    09:00 +16°C° 0.3 mm 1 m/S 559 mmHg 79%
    10:00 +18°C° 0.3 mm 1 m/S 560 mmHg 75%
    11:00 +19°C° 1.2 mm 1 m/S 559 mmHg 76%
    12:00 +19°C° 1.2 mm 1 m/S 559 mmHg 76%
    13:00 +19°C° 1.2 mm 1 m/S 558 mmHg 77%
    14:00 +19°C° 1.4 mm 1 m/S 557 mmHg 78%
    15:00 +18°C° 1.4 mm 1 m/S 557 mmHg 79%
    16:00 +18°C° 1.4 mm 1 m/S 556 mmHg 80%
    17:00 +16°C° 1 mm 1 m/S 556 mmHg 84%
    18:00 +15°C° 1 mm 1 m/S 556 mmHg 88%
    19:00 +13°C° 1 mm 1 m/S 556 mmHg 92%
    20:00 +13°C° 0.2 mm 1 m/S 556 mmHg 93%
    21:00 +12°C° 0.2 mm 1 m/S 556 mmHg 93%
    22:00 +12°C° 0.2 mm 1 m/S 556 mmHg 94%
    23:00 +11°C° 0 mm 1 m/S 556 mmHg 94%

    26 September, Donnerstag

    Zeit Temperatur Niederschläge Wind Luftdruck Luftfeuchtigkeit
    00:00 +10°C° 0 mm 0 m/S 555 mmHg 94%
    01:00 +10°C° 0 mm 0 m/S 555 mmHg 93%
    02:00 +10°C° 0 mm 0 m/S 555 mmHg 93%
    03:00 +10°C° 0 mm 0 m/S 555 mmHg 92%
    04:00 +11°C° 0 mm 1 m/S 555 mmHg 92%
    05:00 +11°C° 0 mm 1 m/S 555 mmHg 91%
    06:00 +12°C° 0 mm 1 m/S 556 mmHg 90%
    07:00 +12°C° 0 mm 1 m/S 557 mmHg 89%
    08:00 +14°C° 0.1 mm 1 m/S 558 mmHg 82%
    09:00 +16°C° 0.1 mm 1 m/S 559 mmHg 76%
    10:00 +18°C° 0.1 mm 2 m/S 560 mmHg 70%
    11:00 +18°C° 0.7 mm 2 m/S 559 mmHg 72%
    12:00 +18°C° 0.7 mm 2 m/S 558 mmHg 73%
    13:00 +18°C° 0.7 mm 2 m/S 558 mmHg 75%
    14:00 +17°C° 0.8 mm 2 m/S 557 mmHg 76%
    15:00 +17°C° 0.8 mm 2 m/S 556 mmHg 76%
    16:00 +17°C° 0.8 mm 2 m/S 556 mmHg 77%
    17:00 +15°C° 0.3 mm 2 m/S 555 mmHg 82%
    18:00 +13°C° 0.3 mm 1 m/S 555 mmHg 87%
    19:00 +12°C° 0.3 mm 1 m/S 554 mmHg 92%
    20:00 +11°C° 0 mm 1 m/S 555 mmHg 92%
    21:00 +11°C° 0 mm 1 m/S 555 mmHg 92%
    22:00 +11°C° 0 mm 1 m/S 555 mmHg 92%
    23:00 +11°C° 0 mm 1 m/S 555 mmHg 91%

    27 September, Freitag

    Zeit Temperatur Niederschläge Wind Luftdruck Luftfeuchtigkeit
    00:00 +11°C° 0 mm 1 m/S 555 mmHg 90%
    01:00 +12°C° 0 mm 1 m/S 555 mmHg 90%
    02:00 +11°C° 0 mm 1 m/S 555 mmHg 90%
    03:00 +11°C° 0 mm 1 m/S 554 mmHg 90%
    04:00 +10°C° 0 mm 1 m/S 554 mmHg 91%
    05:00 +11°C° 0 mm 1 m/S 555 mmHg 89%
    06:00 +12°C° 0 mm 1 m/S 556 mmHg 87%
    07:00 +13°C° 0 mm 1 m/S 557 mmHg 85%
    08:00 +15°C° 0.1 mm 1 m/S 558 mmHg 77%
    09:00 +18°C° 0.1 mm 1 m/S 559 mmHg 69%
    10:00 +19°C° 0.1 mm 2 m/S 560 mmHg 62%
    11:00 +19°C° 0.6 mm 2 m/S 560 mmHg 63%
    12:00 +19°C° 0.6 mm 2 m/S 559 mmHg 64%
    13:00 +19°C° 0.6 mm 3 m/S 558 mmHg 65%
    14:00 +18°C° 0.8 mm 2 m/S 558 mmHg 68%
    15:00 +18°C° 0.8 mm 2 m/S 557 mmHg 71%
    16:00 +18°C° 0.8 mm 1 m/S 556 mmHg 74%
    17:00 +16°C° 0.5 mm 1 m/S 556 mmHg 80%
    18:00 +14°C° 0.5 mm 1 m/S 555 mmHg 86%
    19:00 +12°C° 0.5 mm 1 m/S 555 mmHg 92%
    20:00 +12°C° 0.1 mm 1 m/S 555 mmHg 91%
    21:00 +11°C° 0.1 mm 1 m/S 555 mmHg 91%
    22:00 +11°C° 0.1 mm 1 m/S 555 mmHg 91%
    23:00 +11°C° 0 mm 1 m/S 555 mmHg 90%

    28 September, Samstag

    Zeit Temperatur Niederschläge Wind Luftdruck Luftfeuchtigkeit
    00:00 +9°C° 0 mm 0 m/S 555 mmHg 90%
    01:00 +9°C° 0 mm 0 m/S 554 mmHg 89%
    02:00 +9°C° 0 mm 0 m/S 554 mmHg 89%
    03:00 +9°C° 0 mm 0 m/S 554 mmHg 88%
    04:00 +10°C° 0 mm 1 m/S 553 mmHg 88%
    05:00 +10°C° 0 mm 0 m/S 554 mmHg 85%
    06:00 +11°C° 0 mm 0 m/S 556 mmHg 82%
    07:00 +12°C° 0 mm 0 m/S 557 mmHg 80%
    08:00 +14°C° 0 mm 0 m/S 558 mmHg 70%
    09:00 +19°C° 0 mm 1 m/S 559 mmHg 60%
    10:00 +21°C° 0 mm 1 m/S 561 mmHg 49%
    11:00 +21°C° 0.1 mm 1 m/S 560 mmHg 50%
    12:00 +22°C° 0.1 mm 1 m/S 559 mmHg 50%
    13:00 +22°C° 0.1 mm 1 m/S 559 mmHg 51%
    14:00 +20°C° 0.7 mm 2 m/S 558 mmHg 58%
    15:00 +19°C° 0.7 mm 2 m/S 557 mmHg 66%
    16:00 +18°C° 0.7 mm 2 m/S 556 mmHg 74%
    17:00 +16°C° 0.9 mm 1 m/S 555 mmHg 80%
    18:00 +14°C° 0.9 mm 1 m/S 555 mmHg 86%
    19:00 +12°C° 0.9 mm 0 m/S 554 mmHg 93%
    20:00 +11°C° 0.3 mm 0 m/S 554 mmHg 93%
    21:00 +11°C° 0.3 mm 0 m/S 554 mmHg 93%
    22:00 +11°C° 0.3 mm 0 m/S 555 mmHg 92%
    23:00 +10°C° 0 mm 0 m/S 554 mmHg 92%
    Mehr zeigen